Regional Weather Roundup
Issued by NWS

Home | Current Version | Previous Version | Text Only | Print | Product List | Glossary On
Versions: 1 2 3 4 5 6 7 8 9 10 11 12 13 14 15 16 17 18 19 20 21 22 23 24 25 26 27 28 29 30 31 32 33 34 35 36 37 38 39 40 41 42 43 44 45 46 47 48 49 50
000
ASUS43 KFSD 301302
RWRSD

WEATHER ROUNDUP FOR SOUTH DAKOTA
NATIONAL WEATHER SERVICE SIOUX FALLS SD
800 AM CDT SAT MAY 30 2015

NOTE: "FAIR" INDICATES FEW OR NO CLOUDS BELOW 12,000 FEET WITH NO
SIGNIFICANT WEATHER AND/OR OBSTRUCTIONS TO VISIBILITY.


SDZ001>005-009-010-012>017-301400-
NORTHWEST AND NORTH CENTRAL SOUTH DAKOTA

CITY           SKY/WX    TMP DP  RH WIND       PRES   REMARKS
BUFFALO          N/A     41  37  86 SE8       30.22S
FAITH            N/A     42  36  79 SE14      30.32R
MOBRIDGE       SUNNY     41  36  82 E9        30.37R
$$

SDZ012>016-024>037-041>051-057-063-072>074-301400-
SOUTHWEST AND SOUTH CENTRAL SOUTH DAKOTA

CITY           SKY/WX    TMP DP  RH WIND       PRES   REMARKS
RAPID CTY ARPT SUNNY     41  38  89 SE6       30.31R
PIERRE         SUNNY     42  37  82 E9        30.35R
CUSTER         FOG       35  33  92 CALM      30.29R VSB<1/4
ELLSWORTH AFB  SUNNY     43  39  86 S8        30.30R
PHILIP         SUNNY     41  38  89 CALM      30.34S
PINE RIDGE     SUNNY     36  34  92 CALM      30.32S
WINNER         FAIR      42  37  82 N7        30.34R
$$

SDZ004>011-016>023-039-040-301400-
NORTHEAST SOUTH DAKOTA

CITY           SKY/WX    TMP DP  RH WIND       PRES   REMARKS
ABERDEEN       SUNNY     41  29  62 N13       30.37R
WATERTOWN      SUNNY     40  33  76 N15       30.29R
BROOKINGS      SUNNY     41  34  75 N13G20    30.29R
SISSETON         N/A     39  34  82 N16       30.34R
$$

SDZ017-020-022-023-036>040-048>070-301400-
SOUTHEAST SOUTH DAKOTA

CITY           SKY/WX    TMP DP  RH WIND       PRES   REMARKS
SIOUX FALLS    MOSUNNY   45  38  76 N16       30.26R
HURON          SUNNY     41  35  79 N17       30.32S
CHAMBERLAIN    SUNNY     41  36  81 N8        30.34R
MITCHELL       SUNNY     44  39  82 N14       30.32R
YANKTON        PTSUNNY   45  39  81 N12       30.26R
$$

ABBREVIATIONS USED IN REMARKS
   TC - TEMPERATURE IN CELSIUS
  WCI - WIND CHILL INDEX
   HX - HEAT INDEX
  VSB - VISIBILITY



USA.gov is the U.S. government's official web portal to all federal, state and local government web resources and services.